Tracking 18951 objects as of 21-Jan-2018
HD Live streaming from Space Station
objects crossing your sky now

FLOCK 3P 59

Track FLOCK 3P 59 now!
10-day predictions
FLOCK 3P 59 is classified as:


NORAD ID: 42022
Int'l Code: 2017-008CC
Perigee: 494.9 km
Apogee: 507.4 km
Inclination: 97.5 °
Period: 94.5 minutes
Semi major axis: 6872 km
RCS: Unknown
Launch date: February 15, 2017
Source: United States (US)
Launch site: SRIHARIKOTA (SRI)
aabbcc
Your satellite tracking list
Your tracking list is empty




NASA's NSSDC Master Catalog

Two Line Element Set (TLE):
1 42022U 17008CC  18020.87460348 +.00002623 +00000-0 +11140-3 0  9990
2 42022 097.4695 086.5244 0009065 144.8999 215.2837 15.23933056050533
Source of the keplerian elements: AFSPC